Estación de Algarrobo Bajo INIA

Ultimos registro cada 15 minutos 67
Estación Fecha / Hora Temperatura Humedad Lluvia Velocidad Dirección Radiación Presion
67 Algarrobo Bajo INIA 05-05-2026 16:30 18,4 64 0 0 0 0 0
66 Algarrobo Bajo INIA 05-05-2026 16:15 18,6 61,3 0 0 0 0 0
65 Algarrobo Bajo INIA 05-05-2026 16:00 18,5 61,1 0 0 0 0 0
64 Algarrobo Bajo INIA 05-05-2026 15:45 18,7 62 0 0 0 0 0
63 Algarrobo Bajo INIA 05-05-2026 15:30 18,4 61,6 0 0 0 0 0
62 Algarrobo Bajo INIA 05-05-2026 15:15 18,4 63 0 0 0 0 0
61 Algarrobo Bajo INIA 05-05-2026 15:00 18 64,2 0 0 0 0 0
60 Algarrobo Bajo INIA 05-05-2026 14:45 18,1 63,9 0 0 0 0 0
59 Algarrobo Bajo INIA 05-05-2026 14:30 17,6 64,5 0 0 0 0 0
58 Algarrobo Bajo INIA 05-05-2026 14:15 17,5 65,2 0 3,6 308 440 0
57 Algarrobo Bajo INIA 05-05-2026 14:00 17,7 65 0 3,8 317 514 0
56 Algarrobo Bajo INIA 05-05-2026 13:45 17,5 66,2 0 4 327 563 0
55 Algarrobo Bajo INIA 05-05-2026 13:30 17,1 65,5 0 4 322 602 0
54 Algarrobo Bajo INIA 05-05-2026 13:15 16,3 68,6 0 3,9 321 445 0
53 Algarrobo Bajo INIA 05-05-2026 13:00 16,4 70,3 0 4,4 325 600 0
52 Algarrobo Bajo INIA 05-05-2026 12:45 16,1 68,8 0 3,3 324 618 0
51 Algarrobo Bajo INIA 05-05-2026 12:30 15,4 72,3 0 2,6 314 657 0
50 Algarrobo Bajo INIA 05-05-2026 12:15 14,5 78,4 0 2,5 281 539 0
49 Algarrobo Bajo INIA 05-05-2026 12:00 13,8 82,9 0 1,9 291 291 0
48 Algarrobo Bajo INIA 05-05-2026 11:45 13,3 84,8 0 1,7 327 244 0
47 Algarrobo Bajo INIA 05-05-2026 11:30 13 87,3 0 1,7 312 206 0
46 Algarrobo Bajo INIA 05-05-2026 11:15 12,7 88,7 0 1,7 318 179 0
45 Algarrobo Bajo INIA 05-05-2026 11:00 12,8 90 0 1,3 315 138 0
44 Algarrobo Bajo INIA 05-05-2026 10:45 12,6 91,9 0 0,7 268 112 0
43 Algarrobo Bajo INIA 05-05-2026 10:30 12,4 92,5 0 1,1 276 120 0
42 Algarrobo Bajo INIA 05-05-2026 10:15 12,2 93,2 0 1 267 107 0
41 Algarrobo Bajo INIA 05-05-2026 10:00 11,9 94,6 0 1,5 298 108 0
40 Algarrobo Bajo INIA 05-05-2026 09:45 11,5 95,7 0 1,5 322 113 0
39 Algarrobo Bajo INIA 05-05-2026 09:30 11,2 96,1 0 1,7 319 80 0
38 Algarrobo Bajo INIA 05-05-2026 09:15 11,2 96,2 0 1,6 318 69 0
37 Algarrobo Bajo INIA 05-05-2026 09:00 11,2 96,7 0 1,2 289 59 0
36 Algarrobo Bajo INIA 05-05-2026 08:45 11 97 0 0,8 290 48 0
35 Algarrobo Bajo INIA 05-05-2026 08:30 11 96,9 0 1,2 285 37 0
34 Algarrobo Bajo INIA 05-05-2026 08:15 10,9 97,1 0 1,2 265 23 0
33 Algarrobo Bajo INIA 05-05-2026 08:00 10,9 97 0 1,2 342 14 0
32 Algarrobo Bajo INIA 05-05-2026 07:45 10,7 97,8 0 0,7 3 3 0
31 Algarrobo Bajo INIA 05-05-2026 07:30 10,7 97 0 0,5 28 1 0
30 Algarrobo Bajo INIA 05-05-2026 07:15 10,6 97 0 0,4 83 1 0
29 Algarrobo Bajo INIA 05-05-2026 07:00 10,6 96,7 0 0,5 34 0 0
28 Algarrobo Bajo INIA 05-05-2026 06:45 10,5 96,6 0 0,5 39 0 0
27 Algarrobo Bajo INIA 05-05-2026 06:30 10,5 96,6 0 0,9 347 0 0
26 Algarrobo Bajo INIA 05-05-2026 06:15 10,6 96,8 0 0,9 304 0 0
25 Algarrobo Bajo INIA 05-05-2026 06:00 10,5 96,7 0 0,4 30 0 0
24 Algarrobo Bajo INIA 05-05-2026 05:45 10,4 96,6 0 0,3 12 0 0
23 Algarrobo Bajo INIA 05-05-2026 05:30 10,2 96,3 0 0,7 291 0 0
22 Algarrobo Bajo INIA 05-05-2026 05:15 10,2 96,3 0 0,7 344 0 0
21 Algarrobo Bajo INIA 05-05-2026 05:00 10,3 96,3 0 0,8 330 0 0
20 Algarrobo Bajo INIA 05-05-2026 04:45 10 96,3 0 0 206 0 0
19 Algarrobo Bajo INIA 05-05-2026 04:30 9,8 96 0 0 0 0 0
18 Algarrobo Bajo INIA 05-05-2026 04:15 9,9 95,9 0 0,6 141 0 0
17 Algarrobo Bajo INIA 05-05-2026 04:00 10,1 95,6 0 0,1 177 0 0
16 Algarrobo Bajo INIA 05-05-2026 03:45 9,9 95,8 0 0,5 25 0 0
15 Algarrobo Bajo INIA 05-05-2026 03:30 9,6 95,6 0 0,9 1 0 0
14 Algarrobo Bajo INIA 05-05-2026 03:15 9,2 94,9 0 1,5 342 0 0
13 Algarrobo Bajo INIA 05-05-2026 03:00 8,8 94,1 0 1,6 334 0 0
12 Algarrobo Bajo INIA 05-05-2026 02:45 8,8 93 0 1,9 326 0 0
11 Algarrobo Bajo INIA 05-05-2026 02:30 9 92,7 0 1,6 326 0 0
10 Algarrobo Bajo INIA 05-05-2026 02:15 9,5 91,8 0 1,2 340 0 0
9 Algarrobo Bajo INIA 05-05-2026 02:00 10 91,6 0 1 321 0 0
8 Algarrobo Bajo INIA 05-05-2026 01:45 10,4 92,1 0 1,1 314 0 0
7 Algarrobo Bajo INIA 05-05-2026 01:30 10,2 92,3 0 1 332 0 0
6 Algarrobo Bajo INIA 05-05-2026 01:15 10,2 91,9 0 1,2 312 0 0
5 Algarrobo Bajo INIA 05-05-2026 01:00 10,6 90,6 0 1,2 290 0 0
4 Algarrobo Bajo INIA 05-05-2026 00:45 11 88,8 0 1,3 306 0 0
3 Algarrobo Bajo INIA 05-05-2026 00:30 11,7 87,1 0 0,5 20 0 0
2 Algarrobo Bajo INIA 05-05-2026 00:15 12,2 86,2 0 0,8 17 0 0
1 Algarrobo Bajo INIA 05-05-2026 00:00 12,2 86,5 0 0,4 344 0 0